Wind_Speed
14 15 14 12 9 7 4 5 5 5 3 3 5 9 11 9 7 10 9 9 10 9 7 7 5 5 5 5 4 4 3 3 3 3 5 10 13 18 21 20 20 22 21
13 11 11 11 10 8 6 4 2 0 3 6 10 10 8 8 9 9 10 10 10 11 10 10 9 8 8 7 6 6 5 4 1 2 5 13 12 22 20 22 23 25 22
17 16 14 13 12 11 9 7 6 7 9 11 12 13 11 12 12 12 14 15 15 14 13 12 11 9 10 9 9 9 9 8 8 7 7 11 11 22 24 26 27 30 20
16 14 15 14 13 12 11 11 11 11 13 13 14 16 16 15 15 17 17 17 18 16 15 13 12 11 11 11 13 11 10 13 12 11 10 10 13 19 20 28 33 32 21
16 16 15 13 12 12 14 14 14 15 16 17 18 18 18 17 17 16 18 18 17 17 16 16 17 16 14 15 15 13 13 14 13 13 13 12 15 14 21 18 18 29 16
12 15 13 13 13 13 14 15 16 17 18 18 19 18 18 18 16 16 18 20 20 19 19 18 17 17 16 16 15 15 16 15 14 12 12 9 11 13 17 19 17 18 8
9 11 12 11 13 13 13 14 16 17 17 19 21 21 21 17 15 17 20 23 23 20 18 18 18 17 16 14 14 15 16 15 15 14 11 10 9 15 16 16 19 16 11
8 9 9 8 10 11 12 13 14 16 18 19 19 19 20 19 17 19 22 22 24 20 18 17 17 17 16 14 15 16 16 16 15 13 12 11 10 10 13 12 17 19 9
6 8 8 7 7 9 13 13 12 13 15 17 17 18 19 18 15 17 20 21 23 20 18 16 16 17 14 14 14 16 16 16 12 11 11 9 10 12 15 17 20 22 8
5 5 6 7 9 11 12 11 11 12 13 15 17 16 16 17 14 16 15 19 20 19 17 16 15 15 14 14 14 13 14 10 10 9 10 13 13 15 17 18 18 15 14
7 6 5 6 7 8 10 10 10 11 12 14 16 15 15 14 14 13 13 13 15 17 16 15 14 14 14 13 12 12 10 8 9 10 13 12 13 16 16 16 13 14 14
6 6 6 6 7 8 8 10 11 13 13 13 15 15 14 13 12 12 11 12 12 13 14 13 12 11 12 11 11 11 10 9 10 12 13 13 16 16 15 13 9 9 9
7 6 6 7 7 7 8 9 11 11 11 11 11 12 12 11 12 11 11 11 11 12 12 11 10 9 8 8 10 10 8 10 11 13 13 13 12 12 12 12 12 8 13
10 9 8 8 8 8 8 8 8 8 9 9 10 10 9 9 9 9 10 10 10 10 10 9 7 6 7 8 8 9 9 11 12 12 12 11 10 10 12 11 15 11 15
16 14 13 12 12 11 11 10 10 11 11 12 11 10 10 10 9 9 8 8 8 8 7 6 6 7 7 7 8 9 9 10 11 10 10 10 12 12 13 12 16 17 19
22 21 21 18 16 15 14 12 11 12 13 12 12 13 12 10 10 11 10 9 8 7 7 8 9 9 10 10 8 9 8 9 8 8 8 7 8 11 13 13 14 15 17
27 25 24 23 22 21 20 19 18 12 14 16 15 16 16 13 14 13 12 12 11 11 11 11 12 12 11 10 9 7 7 7 7 6 6 5 4 6 12 13 13 12 14
31 28 25 25 26 26 25 24 22 21 19 18 19 17 15 15 15 14 13 14 14 15 14 14 14 13 12 11 10 9 9 7 7 6 6 8 7 8 9 10 10 10 10
36 34 31 28 28 28 27 26 24 24 23 18 19 19 18 15 14 16 16 18 17 17 17 16 16 15 14 12 11 11 11 10 9 8 6 6 6 6 7 8 8 7 7
41 39 37 33 31 29 28 28 28 28 27 26 25 24 21 20 20 22 23 22 21 19 17 18 18 17 16 15 13 13 13 13 11 10 9 7 6 5 5 7 7 6 7
46 44 43 39 37 36 35 34 34 34 34 34 35 31 28 28 29 27 26 26 25 23 22 20 19 18 18 17 16 15 15 15 14 13 11 10 7 5 3 3 4 4 3
42 40 39 41 39 37 38 38 37 37 37 37 37 34 30 32 32 31 29 29 27 24 22 21 21 21 20 20 18 18 17 16 15 14 12 11 10 8 6 4 2 2 2
41 39 37 35 36 36 36 36 36 37 38 38 37 35 33 36 37 35 34 32 29 27 25 25 24 23 23 23 22 20 19 18 16 15 14 13 11 10 10 8 7 6 6
38 37 35 33 32 32 32 31 32 34 36 37 37 38 38 38 41 38 36 33 30 29 27 27 26 26 25 25 25 23 20 19 19 17 16 15 14 13 12 12 11 10 10
36 36 33 32 30 32 30 31 30 30 31 37 39 39 38 38 39 40 37 35 32 32 31 30 30 29 28 27 26 24 22 22 21 20 19 17 16 15 14 14 14 13 12
31 31 29 27 27 28 28 27 29 29 31 34 37 38 38 37 38 38 37 36 35 34 33 33 32 30 29 28 27 26 26 25 24 22 21 20 18 17 16 15 15 15 14
Wind_Direction
14 8 1 359 359 354 328 302 293 314 299 260 198 189 184 195 223 233 219 212 202 196 199 199 174 168 151 134 142 171 181 196 216 267 319 342 353 356 359 8 7 4 3
22 23 21 17 17 20 29 29 6 128 141 139 136 137 136 130 135 149 151 144 138 122 122 132 126 127 124 122 120 110 92 61 333 288 351 358 2 2 6 7 10 12 13
23 24 25 29 33 35 44 65 89 108 114 123 123 119 119 117 117 126 121 122 117 118 113 113 113 118 110 104 99 92 93 89 70 60 29 13 8 6 8 12 13 11 22
33 35 34 33 39 49 59 71 89 103 110 111 109 111 114 114 118 120 122 116 113 104 101 104 104 105 104 101 100 90 86 78 74 65 45 26 12 9 15 9 2 11 12
37 38 39 46 57 68 75 79 86 93 97 104 110 111 114 117 119 123 120 109 110 111 109 106 98 98 105 99 88 86 83 81 75 62 50 34 19 12 11 359 359 350 10
50 48 48 54 61 66 75 83 88 91 97 105 106 107 109 110 126 128 123 121 117 112 112 107 101 100 99 94 89 85 78 72 71 69 50 37 20 9 5 3 358 355 348
61 58 61 71 78 80 85 89 91 94 105 105 105 106 104 105 119 125 126 121 117 112 109 112 110 107 105 99 87 80 77 73 69 66 63 41 22 13 6 3 4 352 328
63 70 71 79 89 93 93 92 96 103 101 101 101 102 99 97 108 121 123 120 115 108 105 107 106 103 102 105 102 95 83 73 63 62 59 49 42 24 26 15 357 353 43
73 76 79 84 96 105 95 96 104 107 104 102 107 109 109 106 111 119 122 118 110 107 103 96 96 96 105 103 101 99 90 80 79 79 71 65 62 44 36 35 19 11 1
120 103 100 99 97 97 99 104 105 111 110 109 105 105 109 110 110 113 118 114 112 109 101 93 84 91 98 96 93 95 93 85 90 90 81 65 51 41 38 40 33 24 13
146 138 127 118 112 108 111 115 122 121 122 114 109 104 105 108 111 119 119 118 120 117 108 96 87 82 84 87 89 88 88 98 100 82 65 55 45 39 34 32 32 30 33
165 158 156 149 138 133 132 131 126 131 133 125 122 113 110 113 119 126 128 129 125 122 111 104 94 89 88 90 87 88 92 93 84 69 59 44 38 30 26 30 31 30 36
194 186 180 177 165 157 155 151 148 150 147 137 137 133 129 126 121 127 136 137 134 128 119 112 106 98 91 99 100 96 99 88 83 74 61 46 38 27 24 28 37 69 46
209 209 205 202 194 187 188 186 191 189 186 183 178 162 149 143 145 147 147 149 144 139 135 130 124 122 123 110 102 99 95 89 81 79 71 58 45 31 39 40 33 48 49
214 214 213 213 214 210 210 212 211 214 215 217 211 206 189 181 176 179 175 169 165 161 158 150 150 152 145 135 120 110 105 98 89 84 80 71 62 49 43 41 45 47 49
214 217 217 216 215 215 216 210 219 220 226 224 223 223 218 214 208 190 183 184 194 191 180 180 179 177 171 159 147 122 107 98 93 92 88 79 69 59 54 49 51 46 50
222 223 221 217 214 213 214 215 214 219 224 226 225 222 219 219 203 194 191 195 201 206 202 195 197 189 183 175 170 151 121 111 105 99 97 79 78 78 64 54 51 52 57
228 230 229 225 221 221 222 224 225 223 221 220 222 216 213 213 208 203 200 200 200 203 204 203 202 199 192 189 179 159 140 124 124 113 109 109 97 86 77 64 56 53 56
226 230 231 232 231 231 231 233 235 236 237 236 229 221 219 217 216 212 208 216 221 216 209 207 207 206 203 201 195 177 166 157 157 154 151 141 120 98 89 76 67 52 53
228 230 230 230 231 231 234 233 235 237 241 242 240 237 229 218 218 219 219 223 226 227 224 216 213 211 209 206 202 193 185 175 173 173 170 162 151 130 102 82 75 65 49
227 227 229 228 229 228 229 230 234 236 237 239 241 240 236 233 235 232 229 229 229 229 227 223 220 217 212 209 204 201 195 188 183 185 184 178 174 169 148 105 78 59 52
226 223 223 223 225 225 227 231 230 233 235 237 242 241 236 237 238 239 237 236 236 234 232 230 226 223 221 219 214 209 204 199 198 197 199 201 197 196 199 199 191 216 255
228 223 220 221 223 225 226 227 229 231 234 238 242 242 232 234 240 239 239 239 237 236 232 230 228 225 223 221 220 219 219 218 218 217 216 216 220 223 227 229 234 239 247
227 222 218 218 217 218 220 220 223 230 234 238 241 243 241 236 241 243 243 242 239 238 236 235 234 231 228 226 225 224 224 225 225 223 223 226 229 232 236 241 242 245 246
227 222 218 217 216 215 216 216 217 221 227 237 240 243 244 243 242 245 245 245 242 239 238 238 237 234 231 230 230 230 229 229 229 229 229 233 236 238 240 243 244 245 247
228 224 221 221 221 220 218 218 218 220 224 234 239 243 244 245 245 245 246 244 242 241 240 239 239 238 237 236 235 234 234 234 234 234 236 237 238 240 241 243 244 244 246
Height
828 824 821 820 818 817 815 815 813 811 810 810 810 810 812 815 816 819 819 821 822 824 825 827 829 831 833 834 834 836 836 838 839 840 839 839 837 836 832 827 825 822 819
829 827 824 820 818 815 814 813 812 810 809 809 809 811 813 815 815 818 818 820 822 824 825 827 829 831 833 834 834 835 836 838 841 842 839 839 837 835 831 827 824 821 817
824 822 821 819 817 815 814 812 811 810 810 810 811 811 814 815 817 818 820 821 823 825 827 829 830 832 834 835 836 838 837 838 840 840 841 839 838 834 828 825 823 820 816
827 825 823 821 820 818 815 813 813 813 812 812 811 813 814 817 819 821 821 823 826 827 826 832 833 834 835 838 837 839 839 836 839 840 840 841 839 834 829 825 820 819 813
830 827 825 824 822 820 818 816 816 815 815 815 816 818 818 819 821 822 823 823 826 829 833 835 835 836 838 838 838 841 839 839 840 842 842 840 839 834 832 831 827 822 818
832 830 829 827 825 823 822 820 819 819 819 819 821 821 822 823 824 826 824 826 830 833 837 836 837 839 840 839 841 842 841 841 843 843 843 843 842 840 836 834 828 825 823
834 833 832 831 829 829 828 827 827 827 827 826 826 825 826 827 828 827 828 829 832 836 838 839 841 840 840 842 843 843 843 844 844 845 844 844 844 841 838 834 831 830 827
835 834 834 834 833 832 831 831 831 831 830 830 830 830 830 832 833 833 832 835 834 839 842 844 844 842 841 843 843 844 847 846 846 846 845 845 845 844 839 837 834 829 825
836 836 835 835 834 834 833 834 834 833 834 833 832 833 833 834 837 837 836 837 836 842 845 846 844 843 845 845 845 844 846 848 849 848 847 846 847 844 840 837 833 829 826
836 836 835 835 835 835 835 836 836 836 838 838 837 837 837 836 839 838 839 839 841 844 845 847 847 846 846 846 845 845 847 850 850 850 849 848 847 843 840 839 838 836 832
836 836 836 835 836 836 837 838 838 839 840 841 840 840 839 840 840 841 842 843 845 846 848 849 849 848 847 846 847 847 848 849 851 851 850 849 848 845 843 842 839 837 836
836 836 836 837 837 836 837 838 839 840 841 842 842 841 841 842 843 843 844 846 847 848 849 850 850 850 849 849 849 849 850 851 851 851 851 851 849 848 846 844 842 840 838
835 836 837 837 837 837 838 839 840 841 842 841 842 843 843 844 842 844 845 847 848 849 849 850 851 851 851 850 850 851 851 851 851 852 852 852 852 851 848 845 843 841 839
833 833 834 836 836 837 839 840 841 842 842 843 844 844 844 844 845 846 847 848 849 850 850 851 851 851 852 852 852 852 852 851 852 852 852 852 851 850 848 846 843 840 838
828 830 831 832 834 835 836 838 839 841 843 844 844 845 845 845 846 847 848 849 850 851 851 851 852 853 854 854 854 854 853 852 852 852 852 852 851 850 848 846 844 841 839
823 824 826 829 831 833 835 836 838 839 840 841 842 843 844 845 845 846 847 848 849 850 851 852 853 854 855 855 855 855 854 854 853 853 853 854 853 852 850 848 846 844 842
818 820 822 824 826 828 830 832 833 836 836 838 839 840 841 842 843 844 845 845 846 848 848 850 852 853 854 854 854 854 854 853 853 854 855 856 855 853 851 850 848 847 846
814 816 818 820 822 824 825 827 830 831 832 833 835 837 838 840 841 842 844 844 844 844 845 846 849 851 852 852 852 852 852 853 854 854 855 855 855 854 854 853 852 850 850
804 808 811 814 817 819 822 824 826 828 830 832 833 834 835 837 838 839 840 840 842 842 841 842 844 846 848 849 850 850 850 851 853 854 855 855 855 855 854 854 854 854 852
794 797 801 805 809 813 816 818 820 822 824 826 828 829 831 833 833 833 834 836 837 838 839 839 840 842 843 844 846 847 847 849 851 852 853 854 855 855 855 855 855 854 855
781 786 790 795 797 800 804 807 810 813 815 817 817 821 824 825 825 827 828 829 830 832 833 835 836 838 839 841 842 844 846 846 847 849 850 851 853 855 855 855 855 856 855
772 776 780 783 787 790 792 795 798 801 803 805 807 811 816 816 817 819 821 822 824 826 828 829 830 832 834 836 838 840 841 843 845 847 849 849 850 851 852 852 852 853 855
764 767 770 774 778 781 784 787 789 791 793 795 798 801 806 806 807 810 812 814 817 820 822 823 825 826 828 831 833 836 838 840 842 843 845 846 848 848 848 850 850 850 852
754 758 761 764 768 771 774 777 779 782 784 787 790 791 793 796 796 799 803 806 810 812 815 817 819 820 823 825 827 829 832 834 836 838 840 841 842 843 844 845 846 847 848
745 748 751 755 757 759 762 765 768 772 774 776 778 780 782 785 788 789 793 797 801 803 806 808 811 813 815 817 820 823 825 827 829 831 833 835 837 838 839 840 841 842 843
737 741 743 747 749 752 754 757 759 762 764 765 768 770 773 775 777 780 782 786 790 793 796 798 801 805 808 810 813 816 818 820 822 825 827 828 830 831 832 833 835 837 838